IGO296C VOML-VOBL

Flight info

Callsign IGO296C
Flight time N/A
Altitude 21000
Route PEXEG PEXEG7F
Aircraft A21N/M-SDE2E3FGHIRWXY/LB1

Departure

Time 2026-04-28 16:51
Airport Mangaluru International Airport (VOML)

Arrival

Time N/A
Airport Kempegowda International Airport Bengaluru (VOBL)
Time Latitude Longitude Altitude Speed Heading
2026-04-28 16:44 12.94956 74.87311 269 ft 0 kts 352°
2026-04-28 16:45 12.94955 74.87312 269 ft 1 kts 352°
2026-04-28 16:45 12.94945 74.87312 269 ft 2 kts 352°
2026-04-28 16:45 12.94926 74.87315 269 ft 2 kts 352°
2026-04-28 16:46 12.94916 74.87317 269 ft 2 kts 351°
2026-04-28 16:46 12.94901 74.87316 269 ft 2 kts 23°
2026-04-28 16:46 12.94886 74.87305 268 ft 0 kts 55°
2026-04-28 16:46 12.94883 74.87299 267 ft 1 kts 60°
2026-04-28 16:47 12.94882 74.87298 267 ft 0 kts 59°
2026-04-28 16:48 12.94881 74.87297 267 ft 0 kts 59°
2026-04-28 16:48 12.94885 74.87302 268 ft 1 kts 58°
2026-04-28 16:49 12.94895 74.87318 269 ft 3 kts 57°
2026-04-28 16:49 12.94925 74.87367 271 ft 8 kts 58°
2026-04-28 16:49 12.94962 74.87427 274 ft 11 kts 58°
2026-04-28 16:49 12.95012 74.87511 277 ft 15 kts 59°
2026-04-28 16:50 12.94968 74.87608 278 ft 19 kts 146°
2026-04-28 16:50 12.94891 74.87659 278 ft 18 kts 137°
2026-04-28 16:50 12.94914 74.87773 276 ft 20 kts 59°
2026-04-28 16:50 12.95112 74.88094 267 ft 85 kts 58°
2026-04-28 16:51 12.95569 74.88840 296 ft 156 kts 57°
2026-04-28 16:51 12.95983 74.89510 520 ft 176 kts 56°
2026-04-28 16:51 12.96871 74.90983 1111 ft 181 kts 57°
2026-04-28 16:51 12.97521 74.92056 1645 ft 175 kts 56°
2026-04-28 16:52 12.98048 74.93215 1966 ft 187 kts 75°
2026-04-28 16:52 12.98122 74.94575 2232 ft 201 kts 93°
2026-04-28 16:52 12.98045 74.95561 2416 ft 210 kts 91°
2026-04-28 16:52 12.98075 74.97092 2688 ft 224 kts 86°
2026-04-28 16:53 12.98212 74.99358 3005 ft 250 kts 85°
2026-04-28 16:53 12.98352 75.01191 3343 ft 266 kts 84°
2026-04-28 16:53 12.98453 75.02452 3672 ft 272 kts 84°
2026-04-28 16:53 12.98667 75.05018 4571 ft 273 kts 84°
2026-04-28 16:54 12.98834 75.06973 5240 ft 273 kts 84°